Flag for Germany Weather past 2 weeks in Hagen, North Rhine-Westphalia, Germany

Now
54 °F

Passing clouds.


Feels Like: 49 °F
Forecast: 41 / 48 °F
Wind: 14 mph from Southwest

Location: Dortmund / Wickede

Current Time: Oct 21, 2014 at 8:09:36 AM

Latest Report: Oct 21, 2014 at 7:20 AM


Visibility: N/A

Pressure: 29.80 "Hg

Humidity: 82%

Dew point: 48 °F

Location of HagenLocation

Historic Weather in Hagen — Graph

°F

Hagen temperature yesterday

Maximum temperature yesterday: 61 °F (at 1:50 PM)
Minimum temperature yesterday: 54 °F (at 10:20 PM)
Average temperature yesterday: 57 °F

Past Weeks' High & Low Weather Summary

 TemperatureHumidityPressure
High73 °F (Oct 19, 2:20 PM)100% (Oct 6, 6:20 AM)30.12 "Hg (Oct 6, 6:20 AM)
Low45 °F (Oct 6, 6:20 AM)49% (Oct 10, 2:50 PM)29.53 "Hg (Oct 7, 9:20 AM)
Average58 °F75%29.83 "Hg
* Reported Oct 6 6:20 AM — Oct 21 6:50 AM, Hagen, Weather by CustomWeather, © 2014

Note: Actual official high and low records may vary slightly from our data, if they occured in-between our weather recording intervals... More about our weather records

Advertising

Hagen weather history for previous 24 hours

 ConditionsComfort  
Time TempWeatherWind HumidityBarometerVisibility
6:50 AM
Oct 21
52 °FPassing clouds.12 mph88%29.80 "HgN/A
6:20 AM52 °FClear.13 mph82%29.83 "Hg10 mi
5:50 AM52 °FPassing clouds.13 mph82%29.83 "HgN/A
5:20 AM52 °FPassing clouds.13 mph82%29.86 "HgN/A
10:50 PM
Oct 20
54 °FPassing clouds.10 mph88%29.95 "HgN/A
10:20 PM54 °FPassing clouds.8 mph88%29.95 "HgN/A
9:50 PM55 °FPassing clouds.10 mph82%29.95 "HgN/A
9:20 PM55 °FSprinkles. Partly cloudy.8 mph82%29.95 "HgN/A
8:50 PM55 °FPassing clouds.13 mph77%29.95 "HgN/A
8:20 PM55 °FClear.10 mph77%29.95 "Hg10 mi
7:50 PM55 °FPassing clouds.10 mph77%29.98 "HgN/A
7:20 PM55 °FSunny.9 mph77%29.98 "Hg10 mi
6:50 PM55 °FSunny.9 mph77%29.98 "Hg10 mi
6:20 PM57 °FSunny.10 mph72%29.98 "Hg10 mi
5:50 PM57 °FSunny.15 mph72%29.98 "Hg10 mi
5:20 PM59 °FPassing clouds.17 mph68%29.98 "HgN/A
4:50 PM59 °FScattered clouds.17 mph68%29.98 "HgN/A
4:20 PM61 °FScattered clouds.17 mph63%29.98 "HgN/A
3:50 PM59 °FScattered clouds.15 mph68%30.01 "HgN/A
3:20 PM59 °FSunny.17 mph68%30.01 "Hg10 mi
2:50 PM59 °FScattered clouds.20 mph68%30.01 "HgN/A
2:20 PM61 °FPartly sunny.16 mph68%30.01 "HgN/A
1:50 PM61 °FScattered clouds.16 mph68%30.01 "HgN/A
1:20 PM59 °FScattered clouds.20 mph72%30.01 "HgN/A
12:50 PM59 °FScattered clouds.18 mph72%30.04 "HgN/A
12:20 PM59 °FScattered clouds.20 mph72%30.04 "HgN/A
11:50 AM59 °FPartly sunny.16 mph77%30.04 "HgN/A
11:20 AM57 °FPartly sunny.15 mph77%30.01 "HgN/A
10:50 AM57 °FPartly sunny.16 mph77%30.04 "HgN/A
10:20 AM57 °FPartly sunny.14 mph77%30.01 "HgN/A
9:50 AM57 °FPartly sunny.15 mph77%30.01 "HgN/A
9:20 AM57 °FPartly sunny.16 mph77%30.01 "HgN/A
8:50 AM55 °FPartly cloudy.15 mph82%30.01 "HgN/A
8:20 AM57 °FPassing clouds.15 mph77%30.01 "HgN/A
Weather by CustomWeather, © 2014

See weather overviewHow to use our weather pages